DW7214 Weather Reports


time (UTC)temp
F
wind
direction
speed
knots
gust
knots
rain 1hr
in
rain 24hr
in
rain mn
in
humidity
%
barometer
mb
20260905091516 55 245 0.0 0.0 0.00 0.28 0.00 95 1017.3
20260905090006 55 245 0.0 0.0 0.00 0.28 0.00 95 1017.2
20260905084504 55 245 0.0 0.0 0.00 0.28 0.00 95 1017.2
20260905083009 55 245 0.0 0.0 0.00 0.28 0.00 95 1017.1
20260905081516 55 242 0.0 0.0 0.00 0.28 0.00 95 1017.1
20260905080028 55 244 0.0 0.0 0.00 0.28 0.00 95 1017.1
20260905074504 55 260 0.0 0.0 0.00 0.28 0.00 95 1017.0
20260905073004 55 239 0.0 0.0 0.00 0.28 0.00 95 1016.9
20260905071513 55 242 0.0 0.9 0.00 0.28 0.00 95 1016.8
20260905070036 55 245 0.0 0.0 0.00 0.28 0.00 95 1016.7
20260905064537 55 257 0.0 0.0 0.00 0.28 0.28 95 1016.6
20260905063008 55 257 0.0 0.0 0.00 0.28 0.28 95 1016.5
20260905061508 55 242 0.0 0.0 0.00 0.28 0.28 95 1016.5
20260905060020 54 246 0.0 0.0 0.00 0.28 0.28 95 1016.5
20260905054534 55 242 0.0 0.0 0.00 0.28 0.28 95 1016.4
20260905053006 55 248 0.0 0.0 0.00 0.28 0.28 95 1016.4
20260905051516 55 240 0.0 0.0 0.00 0.28 0.28 95 1016.4
20260905050012 55 240 0.0 1.7 0.00 0.28 0.28 95 1016.4
20260905044518 55 230 0.0 2.6 0.00 0.28 0.28 95 1016.4
20260905043033 55 238 0.9 2.6 0.00 0.28 0.28 94 1016.3
20260905041511 55 236 0.0 0.0 0.00 0.28 0.28 94 1016.2
20260905040021 55 217 0.0 0.0 0.00 0.28 0.28 93 1016.0
20260905034527 56 217 0.0 0.0 0.00 0.28 0.28 93 1015.8
20260905033027 56 217 0.0 0.0 0.00 0.28 0.28 93 1015.8
20260905031532 56 191 0.0 0.0 0.00 0.28 0.28 93 1015.6
20260905030009 57 313 0.0 0.0 0.00 0.29 0.28 92 1015.5
20260905024512 57 245 0.0 1.7 0.00 0.29 0.28 92 1015.3
20260905023018 57 223 0.0 0.0 0.00 0.32 0.28 92 1015.3
20260905021536 58 224 0.0 1.7 0.00 0.35 0.28 90 1015.2
20260905020029 59 242 0.0 0.0 0.00 0.37 0.28 89 1015.1
20260905014516 60 242 0.0 0.0 0.00 0.40 0.28 87 1015.1
20260905013017 60 242 0.0 0.0 0.00 0.41 0.28 86 1015.1
20260905011521 60 313 0.0 1.7 0.00 0.41 0.28 82 1015.1
20260905010031 60 338 0.0 0.9 0.00 0.41 0.28 83 1014.9
20260905004510 61 298 0.0 1.7 0.00 0.42 0.28 81 1014.9
20260905003020 61 360 0.0 2.6 0.00 0.43 0.28 80 1014.8
20260905001521 61 9 0.9 2.6 0.00 0.43 0.28 82 1014.7
20260905000030 61 322 0.9 2.6 0.00 0.44 0.28 84 1014.5
20260904234531 61 304 0.0 3.5 0.00 0.45 0.28 83 1014.6
20260904233014 61 333 0.9 5.2 0.01 0.45 0.28 83 1014.4
20260904231518 61 340 2.6 5.2 0.01 0.45 0.28 84 1014.3
20260904230026 59 288 0.0 3.5 0.01 0.45 0.28 85 1014.3
20260904224528 59 273 0.0 2.6 0.03 0.45 0.28 89 1014.4
20260904223038 58 277 0.0 0.0 0.02 0.44 0.27 90 1014.4
20260904221533 58 229 0.0 1.7 0.02 0.44 0.27 91 1014.3
20260904220009 58 237 1.7 2.6 0.02 0.45 0.27 90 1014.3
20260904214512 58 170 0.0 0.0 0.00 0.43 0.25 89 1014.3
20260904213014 58 144 1.7 4.3 0.03 0.45 0.25 87 1014.1
20260904211513 58 219 0.0 3.5 0.04 0.46 0.25 89 1014.0
20260904210015 58 190 0.0 3.5 0.04 0.46 0.25 87 1013.9
20260904204513 60 143 0.9 5.2 0.04 0.47 0.25 84 1013.9
20260904203006 61 84 0.9 7.8 0.01 0.44 0.22 79 1013.7
20260904201518 63 33 0.0 5.2 0.00 0.43 0.21 74 1013.7
20260904200012 63 11 0.9 6.1 0.00 0.43 0.21 75 1013.6
20260904194520 62 329 1.7 4.3 0.00 0.46 0.21 81 1013.7
20260904193033 62 341 1.7 4.3 0.00 0.52 0.21 82 1013.7
20260904191511 61 265 1.7 6.1 0.00 0.56 0.21 82 1013.8
20260904190016 60 302 0.9 3.5 0.00 0.62 0.21 85 1013.9
20260904184517 59 283 0.9 3.5 0.02 0.64 0.21 86 1013.8
20260904183016 59 279 0.9 2.6 0.02 0.64 0.21 85 1013.7
20260904181515 59 261 0.0 4.3 0.02 0.64 0.21 91 1013.6
20260904180012 58 221 1.7 3.5 0.02 0.64 0.21 1013.5
20260904174520 58 232 0.0 2.6 0.00 0.62 0.19 1013.6
20260904173026 58 283 0.0 0.0 0.00 0.62 0.19 1013.5
20260904171524 58 264 0.0 2.6 0.00 0.62 0.19 87 1013.5
20260904170021 58 341 0.0 1.7 0.00 0.62 0.19 89 1013.4
20260904164514 57 271 0.9 3.5 0.00 0.62 0.19 89 1013.1
20260904163023 57 342 1.7 3.5 0.00 0.62 0.19 90 1013.1
20260904161520 57 267 0.9 2.6 0.00 0.63 0.19 92 1013.0
20260904160022 55 277 0.0 0.0 0.00 0.66 0.19 94 1013.0
20260904154512 55 273 0.0 0.9 0.02 0.67 0.19 95 1013.0
20260904153023 54 251 0.0 0.0 0.03 0.68 0.19 95 1013.0
20260904151537 54 236 0.0 0.0 0.04 0.73 0.19 95 1012.9
20260904150033 54 250 0.0 0.0 0.04 0.76 0.19 95 1012.7
20260904144526 54 221 0.0 1.7 0.02 0.76 0.17 95 1012.5
20260904143017 53 226 0.0 0.0 0.04 0.79 0.16 95 1012.4
20260904141526 53 226 0.0 1.7 0.03 0.79 0.15 95 1012.3
20260904140026 53 237 0.0 2.6 0.03 0.79 0.15 95 1012.1
20260904134526 53 225 0.0 1.7 0.03 0.80 0.15 95 1011.9
20260904133025 53 232 0.9 2.6 0.00 0.77 0.12 95 1011.8
20260904131524 53 212 0.0 2.6 0.00 0.78 0.12 95 1011.8
20260904130006 53 220 0.0 1.7 0.00 0.80 0.12 95 1011.6
20260904124510 53 229 1.7 2.6 0.00 0.81 0.12 95 1011.5
20260904123014 53 242 0.0 0.0 0.01 0.83 0.12 95 1011.5
20260904121527 53 241 0.0 1.7 0.01 0.86 0.12 95 1011.5
20260904120037 53 244 0.0 0.9 0.02 0.95 0.12 95 1011.4
20260904114507 53 276 0.0 2.6 0.04 0.97 0.12 95 1011.3
20260904113028 53 241 0.0 0.0 0.05 0.98 0.11 96 1011.2
20260904111524 53 275 0.0 0.0 0.06 0.99 0.11 96 1011.1
20260904110027 53 239 0.0 0.0 0.06 1.00 0.10 96 1011.2
20260904104528 53 239 0.0 0.0 0.05 0.98 0.08 95 1011.1
20260904103008 53 239 0.0 0.0 0.05 0.96 0.06 95 1011.2
20260904101516 53 239 0.0 0.0 0.05 0.95 0.05 95 1011.0
20260904100021 53 246 0.0 2.6 0.04 0.94 0.04 95 1010.8
20260904094526 53 244 0.0 1.7 0.03 0.93 0.03 95 1010.9
20260904093008 53 248 0.0 1.7 0.01 0.91 0.01 95 1010.7